Belize, Belize

12:01 AM CST on May 28, 2017 (GMT -0600)
Philip S W Goldson International

Weather History for MZBZ - August, 2012

Change the Weather History Date:

Friday, August 31, 2012

  Actual Average Record
Temperature  
Mean Temperature 85 °F -  
Max Temperature 89 °F 88 °F 93 °F (2016)
Min Temperature 81 °F 75 °F 73 °F (2013)
Cooling Degree Days 20    
Growing Degree Days 35 (Base 50)    
Moisture  
Dew Point 78 °F    
Average Humidity 77    
Maximum Humidity 89    
Minimum Humidity 64    
Precipitation  
Precipitation 0.00 in 0.37 in - ()
Sea Level Pressure  
Sea Level Pressure 29.93 in    
Wind  
Wind Speed 8 mph ()    
Max Wind Speed 14 mph    
Max Gust Speed -    
Visibility 8.3 miles    
Events      
Averages and records for this station are not official NWS values.
T = Trace of Precipitation, MM = Missing Value Source: Averaged Metar Reports

Daily Weather History Graph

Daily Weather History Graph

Search for Another Location

Airport or City:

Trip Planner

Search our weather history database for the weather conditions in past years. The results will help you decide how hot, cold, wet, or windy it might be!

Date:

Astronomy

Aug. 31, 2012 Rise Set
Actual Time 5:39 AM CST 6:07 PM CST
Civil Twilight 5:17 AM CST 6:29 PM CST
Nautical Twilight 4:51 AM CST 6:54 PM CST
Astronomical Twilight 4:25 AM CST 7:20 PM CST
Moon 6:07 PM CST (8/31) 5:35 AM CST (8/31)
Length of Visible Light 13h 12m
Length of Day
12h 28m
Full, 100% of the Moon is Illuminated
Aug 31
Full
Sep 8
Last Quarter
Sep 15
New
Sep 22
First Quarter
Sep 29
Full

Hourly Weather History & Observations

Time (CST) Temp. Heat Index Dew Point Humidity Pressure Visibility Wind Dir Wind Speed Gust Speed Precip Events Conditions
12:00 AM 83 °F - 77 °F 77% 29.89 in 12 mi East 6.9 mph - -   Scattered Clouds
3:00 AM 82 °F - 78 °F 84% 29.88 in 12 mi ESE 4.6 mph - -   Mostly Cloudy
5:00 AM 82.4 °F 90.9 °F 77.0 °F 84% 29.89 in 6.2 mi East 6.9 mph - N/A   Mostly Cloudy
6:00 AM 83 °F - 78 °F 82% 29.92 in 12 mi ESE 5.8 mph - -   Partly Cloudy
6:00 AM 82.4 °F 92.4 °F 78.8 °F 89% 29.92 in 6.2 mi ESE 5.8 mph - N/A   Mostly Cloudy
7:00 AM 84.2 °F 96.1 °F 78.8 °F 84% 29.92 in 6.2 mi ESE 4.6 mph - N/A   Mostly Cloudy
8:00 AM 86.0 °F 99.3 °F 78.8 °F 79% 29.95 in 6.2 mi ESE 8.1 mph - N/A   Mostly Cloudy
9:00 AM 87 °F - 79 °F 71% 29.97 in 12 mi ESE 10.4 mph - -   Partly Cloudy
9:00 AM 86.0 °F 99.3 °F 78.8 °F 79% 29.96 in 6.2 mi ESE 10.4 mph - N/A   Scattered Clouds
10:00 AM 89.6 °F 104.7 °F 78.8 °F 70% 29.96 in 6.2 mi ESE 11.5 mph - N/A   Scattered Clouds
11:00 AM 87.8 °F 102.5 °F 78.8 °F 75% 29.96 in 6.2 mi ESE 9.2 mph - N/A   Scattered Clouds
12:00 PM 89 °F - 78 °F 64% 29.95 in 12 mi East 12.7 mph - -   Mostly Cloudy
12:00 PM 87.8 °F 102.5 °F 78.8 °F 75% 29.94 in 6.2 mi East 12.7 mph - N/A   Scattered Clouds
1:00 PM 89.6 °F 104.7 °F 78.8 °F 70% 29.93 in 6.2 mi East 13.8 mph - N/A   Scattered Clouds
2:00 PM 87.8 °F 102.5 °F 78.8 °F 75% 29.92 in 6.2 mi East 12.7 mph - N/A   Scattered Clouds
3:00 PM 89 °F - 79 °F 66% 29.91 in 12 mi East 13.8 mph - -   Partly Cloudy
3:00 PM 87.8 °F 102.5 °F 78.8 °F 75% 29.90 in 6.2 mi East 13.8 mph - N/A   Scattered Clouds
4:00 PM 86.0 °F 99.3 °F 78.8 °F 79% 29.89 in 6.2 mi East 12.7 mph - N/A   Scattered Clouds
5:00 PM 86.0 °F 99.3 °F 78.8 °F 79% 29.89 in 6.2 mi East 13.8 mph - N/A   Mostly Cloudy
6:00 PM 85 °F - 79 °F 76% 29.94 in 12 mi East 11.5 mph - -   Mostly Cloudy
6:00 PM 86.0 °F 99.3 °F 78.8 °F 79% 29.92 in 6.2 mi East 11.5 mph - N/A   Mostly Cloudy
9:00 PM 84 °F - 77 °F 75% 29.99 in 12 mi East 13.8 mph - -   Mostly Cloudy